Weather History for Asheville, NC

Change the Weather History Date:

Sunday, April 22, 2007

  Actual Average Record
Temperature  
Mean Temperature 57 °F 57 °F  
Max Temperature 76 °F 70 °F 86 °F (1963)
Min Temperature 38 °F 45 °F 30 °F (1953)
Degree Days  
Heating Degree Days 8 8  
Month to date heating degree days 325 243  
Since 1 July heating degree days 3914 4015  
Cooling Degree Days 0 0  
Month to date cooling degree days 0 0  
Year to date cooling degree days 0 1  
Growing Degree Days 7 (Base 50)    
Moisture  
Dew Point 35 °F    
Average Humidity 54    
Maximum Humidity 89    
Minimum Humidity 19    
Precipitation  
Precipitation 0.00 in 0.11 in 1.74 in (1931)
Month to date precipitation 1.74 2.42  
Year to date precipitation 10.83 13.68  
Snow  
Snow 0.00 in 0.00 in T in (1993)
Month to date snowfall 1.3 0.7  
Since 1 July snowfall 3.2 9.9  
Snow Depth -    
Sea Level Pressure  
Sea Level Pressure 30.24 in    
Wind  
Wind Speed 5 mph (South)    
Max Wind Speed 15 mph    
Max Gust Speed 20 mph    
Visibility 10 miles    
Events      
T = Trace of Precipitation, MM = Missing Value Source: NWS Daily Summary

Daily Weather History Graph

Daily Weather History Graph

Search for Another Location

Airport:

Trip Planner

Search our weather history database for the weather conditions in past years. The results will help you decide how hot, cold, wet, or windy it might be!

Date:

Astronomy

Apr. 22, 2007 Rise Set
Actual Time 6:49 AM EDT 8:08 PM EDT
Civil Twilight 6:22 AM EDT 8:35 PM EDT
Nautical Twilight 5:50 AM EDT 9:07 PM EDT
Astronomical Twilight 5:17 AM EDT 9:40 PM EDT
Moon 10:56 AM EDT (4/22) 1:29 AM EDT (4/22)
Length of Visible Light 14h 12m
Length of Day
13h 19m
Waxing Crescent, 33% of the Moon is Illuminated
Apr 22
Waxing Crescent
Apr 24
First Quarter
May 2
Full
May 10
Last Quarter
May 16
New

Hourly Weather History & Observations

Time (EDT) Temp. Dew Point Humidity Pressure Visibility Wind Dir Wind Speed Gust Speed Precip Events Conditions
12:54 AM 48.2 °F 41.0 °F 76% 30.25 in 10.0 mi Calm Calm - N/A   Clear
1:54 AM 46.0 °F 42.1 °F 86% 30.21 in 10.0 mi Calm Calm - N/A   Clear
2:54 AM 45.0 °F 39.9 °F 82% 30.21 in 10.0 mi Calm Calm - N/A   Clear
3:54 AM 44.1 °F 37.9 °F 79% 30.21 in 10.0 mi Calm Calm - N/A   Clear
4:54 AM 42.1 °F 37.9 °F 85% 30.21 in 10.0 mi Calm Calm - N/A   Clear
5:54 AM 41.0 °F 37.9 °F 89% 30.22 in 7.0 mi Calm Calm - N/A   Clear
6:54 AM 39.9 °F 36.0 °F 86% 30.25 in 8.0 mi Calm Calm - N/A   Clear
7:54 AM 42.8 °F 39.2 °F 87% 30.31 in 9.0 mi Calm Calm - N/A   Clear
8:54 AM 51.1 °F 41.0 °F 68% 30.29 in 10.0 mi NNW 5.8 mph - N/A   Clear
9:54 AM 59.0 °F 39.9 °F 49% 30.29 in 10.0 mi NNW 5.8 mph - N/A   Clear
10:54 AM 66.9 °F 39.9 °F 37% 30.28 in 10.0 mi Variable 3.5 mph - N/A   Clear
11:54 AM 69.1 °F 28.9 °F 22% 30.28 in 10.0 mi Variable 4.6 mph - N/A   Clear
12:54 PM 72.0 °F 32.0 °F 23% 30.27 in 10.0 mi Variable 5.8 mph - N/A   Clear
1:54 PM 73.9 °F 28.0 °F 18% 30.24 in 10.0 mi Calm Calm - N/A   Clear
2:54 PM 75.9 °F 32.0 °F 20% 30.22 in 10.0 mi South 9.2 mph - N/A   Clear
3:54 PM 75.0 °F 30.0 °F 19% 30.21 in 10.0 mi SSW 11.5 mph - N/A   Clear
4:54 PM 75.0 °F 32.0 °F 21% 30.20 in 10.0 mi South 11.5 mph 19.6 mph N/A   Clear
5:54 PM 73.9 °F 33.1 °F 22% 30.20 in 10.0 mi South 10.4 mph - N/A   Clear
6:54 PM 71.1 °F 30.9 °F 23% 30.21 in 10.0 mi SSE 10.4 mph - N/A   Clear
7:54 PM 66.9 °F 30.0 °F 25% 30.22 in 10.0 mi South 10.4 mph - N/A   Clear
8:54 PM 63.0 °F 32.0 °F 31% 30.22 in 10.0 mi South 9.2 mph - N/A   Clear
9:54 PM 59.0 °F 33.1 °F 38% 30.22 in 10.0 mi SE 3.5 mph - N/A   Clear
10:54 PM 57.2 °F 35.6 °F 44% 30.28 in 10.0 mi SE 5.8 mph - N/A   Clear
11:54 PM 57.9 °F 35.1 °F 42% 30.22 in 10.0 mi SE 4.6 mph - N/A   Clear